Location: ?????????
(53.0667°N, 53.9000°E)
Time: 03:53:50
(UTC+00:00)

Daily predictions for brighter satellites

Satellite Brightness Start Highest point End
(mag) Time Altitude Azimuth Time Altitude Azimuth Time Altitude Azimuth
Gblst 52 Del rocket 3.9 00:06:56 74° SW 00:07:18 78° S 00:12:59 10° E
ATLAS 2AS CENTAUR R/B 4.1 00:01:55 13° S 00:08:33 42° ESE 00:15:58 10° NE
USA 238 DEB 3.8 00:07:45 52° W 00:08:44 56° SW 00:15:55 10° SSE
USA 238 3.8 00:07:49 52° W 00:08:51 57° SW 00:16:01 10° SSE
Cosmos 2237 4.1 00:10:25 66° W 00:10:55 70° NW 00:16:41 10° NNE
Cosmos 2237 Rocket 4.2 00:06:22 10° SSE 00:10:59 26° ESE 00:15:38 10° NE
Cosmos 1953 4.3 00:09:02 10° N 00:12:39 30° ENE 00:16:12 10° SE
Cosmos 2251 Rocket 3.4 00:18:55 56° SSW 00:20:05 86° WNW 00:25:31 10° NNE
Cosmos 1758 4.0 00:16:29 10° N 00:20:26 55° ENE 00:24:23 10° SSE
Cosmos 2369 Rocket 4.4 00:17:08 10° NNW 00:21:23 21° NNE 00:25:36 10° E
COSMOS 2428 2.9 00:21:06 31° S 00:23:51 69° ESE 00:29:30 10° NE
Cosmos 2322 Rocket 3.0 00:23:49 34° NW 00:24:01 34° NW 00:29:09 10° NNE
Cosmos 2098 Rocket 4.4 00:24:33 39° SW 00:27:08 56° WNW 00:34:19 10° N
Lacrosse 4 Rocket 3.3 00:29:24 17° NNW 00:29:24 17° NNW 00:31:44 10° NNE
SL-08 ROCKET BODY 4.4 00:30:20 46° WSW 00:31:28 53° WNW 00:37:21 10° N
Cosmos 2344 4.5 00:25:25 11° NW 00:34:09 70° NE 00:46:27 10° ESE
NOSS 3-2 (A) 4.1 00:30:42 30° WNW 00:34:16 50° SW 00:42:10 10° SSE
Cosmos 2360 Rocket 2.5 00:33:24 44° WNW 00:34:18 47° NW 00:39:47 10° NNE
Okean 2 4.0 00:35:47 41° NNW 00:35:47 41° NNW 00:38:55 10° N
Cosmos 1709 Rocket 3.9 00:32:39 29° SSW 00:36:01 66° WNW 00:42:23 10° N
Resurs 1-4 Rocket 4.1 00:34:39 10° NNW 00:36:35 14° NW 00:36:35 14° NW
Meteor 1-31 Rocket 4.5 00:34:53 10° NNE 00:38:23 33° E 00:41:50 10° SSE
Cosmos 2184 Rocket 4.5 00:33:20 10° S 00:39:27 62° E 00:45:39 10° NNE
USA 267 3.2 00:33:00 10° ENE 00:39:35 88° SSE 00:42:48 33° WSW
Intercosmos 25 4.3 00:36:24 10° NNW 00:40:48 54° W 00:47:50 10° S
Cosmos 1980 Rocket 4.0 00:40:04 15° NW 00:41:36 17° NNW 00:45:10 10° NNE
NOSS 2-2 (E) 3.4 00:41:48 52° SSW 00:42:39 77° SE 00:47:12 10° NE
Cosmos 1470 2.6 00:41:41 10° NNW 00:45:39 86° W 00:49:33 10° S
NOSS 8 (F) 4.1 00:47:48 84° NNE 00:47:48 84° NNE 00:50:57 10° NE
Cosmos 1707 3.8 00:47:02 10° SSE 00:50:47 45° E 00:54:34 10° NNE
Cosmos 1842 3.2 00:51:26 50° SW 00:52:10 61° WNW 00:56:06 10° N
Cosmos 1975 Rocket 4.3 00:53:13 25° NW 00:53:13 25° NW 00:56:04 10° N
Cosmos 407 Rocket 4.2 00:49:21 10° S 00:54:19 52° ESE 00:59:18 10° NNE
ADEOS 3.5 00:50:20 10° NNE 00:55:32 67° WNW 00:59:31 17° SSW
COSMOS 2455 2.9 00:53:00 32° WSW 00:55:43 60° NW 01:01:43 10° NE
H-2A R/B 2.4 00:52:12 10° NNE 00:56:19 88° W 01:00:19 12° SSW
NOSS 3-2 (C) 4.1 00:51:42 17° NW 00:57:29 52° SW 01:05:27 10° SSE
CZ-2C R/B 2.8 00:54:11 10° NNE 00:59:24 70° ESE 01:04:33 10° S
Spot 2 4.1 00:55:33 10° N 00:59:28 49° WNW 01:00:25 40° WSW
Cosmos 1943 Rocket 3.8 00:55:09 10° NNW 01:00:16 33° NE 01:05:22 10° ESE
BREEZE-M DEB (TANK) 3.9 01:03:31 18° S 01:03:31 18° S 01:04:35 10° SSE
SL-16 R/B 4.4 00:58:41 10° SSE 01:03:18 26° ESE 01:07:56 10° NE
COSMO-SKYMED 1 3.3 01:00:44 10° SSE 01:04:59 57° ENE 01:09:16 10° N
COBE Rocket 4.5 01:00:23 10° SSE 01:05:22 63° ENE 01:10:30 10° N
NOSS 0 Rocket 4.2 00:59:34 10° SSW 01:05:42 72° ESE 01:11:54 10° NE
ERBS 3.5 01:05:06 22° SSW 01:06:48 37° SE 01:09:58 10° ENE
ADEOS II 3.5 01:04:11 10° N 01:07:48 19° NW 01:08:05 19° WNW
ARIANE 5 R/B 4.0 01:05:42 10° N 01:08:59 18° NW 01:09:02 18° NW
Cosmos 2297 3.9 01:03:16 10° NNW 01:09:03 77° NE 01:14:49 10° SE
Cosmos 1726 3.4 01:05:35 10° N 01:09:06 42° ENE 01:12:37 10° SSE
Cosmos 2278 Rocket 2.5 01:04:14 10° NW 01:09:36 43° WSW 01:14:56 10° S
USA 32 3.9 01:04:40 10° SSW 01:09:53 69° W 01:15:09 10° N
Cosmos 2074 Rocket 3.9 01:06:33 10° SSW 01:12:48 80° WNW 01:19:04 10° N
Cosmos 1726 Rocket 3.6 01:10:25 10° N 01:14:47 81° ENE 01:19:06 10° SSE
Cosmos 292 Rocket 4.3 01:11:00 12° NW 01:14:52 35° WSW 01:19:13 10° S
USA 234 4.2 01:11:21 10° S 01:16:42 26° SW 01:19:11 21° W
Cosmos 2333 Rocket 2.3 01:13:16 20° SW 01:17:11 59° NW 01:22:52 10° NNE
Cosmos 44 3.7 01:16:11 28° W 01:17:24 33° WSW 01:21:17 10° S
PSLV R/B 4.0 01:14:26 10° N 01:18:23 37° WNW 01:20:19 24° WSW
NOSS 3-4 (A) 4.0 01:12:31 10° SSW 01:18:28 59° SE 01:24:49 10° NE
NOSS 3-4 (C) 4.0 01:12:36 10° SSW 01:18:33 59° SE 01:24:54 10° NE
OPS 6432 4.4 01:17:15 26° NW 01:19:01 74° SW 01:23:11 10° SE
Cosmos 2228 2.9 01:14:55 10° NNW 01:19:13 87° W 01:23:29 10° S
Cosmos 44 Rocket 3.3 01:15:09 11° NW 01:19:42 80° NE 01:24:24 10° SE
Aureole 1 Rocket 3.7 01:15:45 16° SW 01:20:18 50° WNW 01:24:51 10° NNE
BREEZE-M DEB (TANK) 2.7 01:18:13 22° WSW 01:20:31 45° S 01:22:54 10° ESE
NOSS 2-2 (D) 3.3 01:18:46 26° WSW 01:20:49 70° NW 01:25:24 10° NE
Okean O Rocket 3.8 01:17:47 10° NNE 01:21:41 29° E 01:25:31 10° SSE
Meteor 1-4 Rocket 2.9 01:19:24 10° S 01:22:52 65° E 01:26:20 10° NNE
Cosmos 1025 Rocket 3.4 01:21:05 17° SW 01:24:00 40° WNW 01:28:03 10° N
Meteor 1-21 4.4 01:22:03 10° SSW 01:27:30 52° WNW 01:33:02 10° N
Cosmos 921 Rocket 4.1 01:28:52 22° W 01:29:02 22° W 01:32:20 10° SSW
Cosmos 2058 Rocket 3.2 01:26:26 10° N 01:30:52 79° E 01:35:17 10° SSE
Cosmos 1378 4.5 01:32:07 21° WNW 01:32:20 21° WNW 01:35:14 10° NNW
ATLAS 3B R/B 3.0 01:28:08 10° NW 01:34:23 44° WSW 01:40:46 10° S
CZ-4B R/B 2.8 01:31:17 10° N 01:35:25 69° WNW 01:39:19 10° SSW
MSX 4.0 01:32:39 10° N 01:38:10 49° WNW 01:43:37 10° SW
SL-16 R/B 3.9 01:35:09 12° WNW 01:38:10 17° NNW 01:41:54 10° NNE
PAYLOAD A 4.1 01:34:05 10° N 01:38:42 50° WNW 01:43:26 10° SW
Cosmos 1140 Rocket 3.6 01:35:37 10° SSW 01:40:49 83° ESE 01:46:00 10° NNE
IDEFIX/ARIANE 42P 3.4 01:37:02 10° N 01:41:37 31° WNW 01:46:10 10° WSW
Cosmos 468 Rocket 4.4 01:36:40 10° NNW 01:41:52 67° ENE 01:46:59 10° SE
PSLV R/B 3.6 01:41:12 10° NNE 01:44:58 87° WNW 01:48:40 10° SSW
Cosmos 389 Rocket 2.6 01:42:21 10° SSW 01:45:40 47° WNW 01:49:02 10° N
Cosmos 614 Rocket 4.0 01:40:49 10° SW 01:46:02 69° WNW 01:51:15 10° NNE
Cosmos 1437 Rocket 3.5 01:42:21 10° S 01:46:03 54° E 01:49:47 10° NNE
Cosmos 2219 Rocket 2.7 01:41:53 13° WSW 01:46:30 40° NW 01:51:48 10° NNE
CENTAUR R/B 3.6 01:39:32 10° NW 01:46:49 41° WSW 01:54:41 10° S
Cosmos 1953 3.0 01:45:26 10° NNW 01:49:03 32° W 01:52:39 10° SSW
SKYMED 2 3.7 01:48:48 10° S 01:53:03 54° W 01:57:20 10° NNW
ASTEX 1 4.2 01:49:29 10° SSE 01:54:16 57° ENE 01:59:05 10° N
Cosmos 2237 Rocket 2.2 01:48:55 10° SW 01:54:35 69° NW 02:00:19 10° NNE
MOS 1-B 4.4 01:51:30 10° NNE 01:57:23 90° E 02:03:12 10° SSW
NOSS 2-2 (C) 4.0 01:54:20 13° W 01:57:36 43° NNW 02:02:10 10° NE
Helios 1A Rocket 3.3 01:55:05 10° NNE 01:59:16 71° ESE 02:03:24 10° S
ATLAS 2AS CENTAUR R/B 3.1 01:51:13 10° SW 01:59:19 75° NW 02:07:18 10° NE
Cosmos 1892 Rocket 3.5 01:57:53 10° SSW 02:02:18 70° WNW 02:06:43 10° N
Cosmos 841 Rocket 4.4 01:57:23 10° NNW 02:02:34 51° ENE 02:07:42 10° SE
In-Cosmos 22 4.1 01:57:48 10° SSW 02:03:10 81° WNW 02:08:42 10° NNE
Meteor PRIRODA 4.0 02:02:21 10° N 02:05:57 45° WNW 02:09:32 10° SW
GP-B 3.3 02:01:56 10° SSW 02:06:14 49° W 02:10:36 10° N
Cosmos 2369 Rocket 2.6 02:00:53 10° NNW 02:06:30 67° NE 02:12:03 10° SE
Cosmos 1356 4.2 02:05:03 10° NNW 02:08:06 30° W 02:11:09 10° SSW
COSMOS 2428 3.5 02:03:32 10° WSW 02:08:36 32° NW 02:13:41 10° NNE
Lacrosse 4 Rocket 3.8 02:08:48 10° N 02:09:13 10° N 02:09:39 10° N
Cosmos 2322 Rocket 4.1 02:06:44 10° NW 02:09:52 15° NNW 02:12:59 10° NNE
Meteor 2-10 4.3 02:05:24 10° NNW 02:10:20 48° W 02:15:23 10° SSW
Cosmos 1908 3.2 02:06:58 10° NNW 02:10:48 61° W 02:14:33 10° S
Cosmos 1606 Rocket 4.5 02:07:23 10° NNW 02:10:57 26° W 02:14:31 10° SW
Cosmos 1980 3.9 02:06:07 10° SW 02:11:39 53° NW 02:17:12 10° NNE
CZ-4B R/B 3.5 02:06:45 10° NNE 02:12:07 74° ESE 02:17:23 10° S
Meteor 1-31 Rocket 3.7 02:09:26 10° N 02:12:44 28° WNW 02:16:01 10° SW
NOAA 6 4.4 02:08:37 10° NNE 02:13:51 74° ESE 02:19:00 10° S
Cosmos 2154 Rocket 4.2 02:09:13 10° SSW 02:15:13 50° WNW 02:21:17 10° N
SeaSat 1 4.2 02:11:51 10° NE 02:16:27 37° ESE 02:21:00 10° S
Cosmos 2360 Rocket 3.9 02:16:01 10° WNW 02:19:46 18° NNW 02:23:31 10° NNE
ADEOS Rocket 4.5 02:12:55 10° SE 02:19:53 52° ENE 02:27:19 10° N
RESURS DK-1 2.5 02:15:48 10° SSW 02:19:57 83° ESE 02:24:07 10° NE
SJ-12 3.9 02:16:41 10° N 02:20:44 61° WNW 02:24:46 10° SSW
USA 267 3.5 02:16:02 10° ENE 02:22:30 65° N 02:28:58 10° W
Cosmos 676 Rocket 4.1 02:18:54 10° SW 02:24:07 61° WNW 02:29:21 10° NNE
Cosmos 1763 Rocket 3.5 02:21:09 10° NNW 02:26:22 74° WSW 02:31:29 10° SSE
